STARLINK-37790, 69312

Orbit data source: Space-Track

STARLINK-37790, 69312 is a payload satellite owned by SpaceX/Seattle (US) in SSO that was launched on Sat, 30 May 2026 UTC via an FALCON 9 launch vehicle from the Air Force Western Test Range (AFWTR). Payload-class satellites include a variety of spacecraft equipped with specific instruments for various scientific and technological missions. These include communications satellites like Starlink; space stations such as the ISS; scientific satellites like the Hubble; Earth observation satellites from companies like Planet Labs, Umbra, and HawkEye 360; GPS; miniature CubeSats for education and research; and military/defense satellites.

Loading next visibility...
Identifier
69312, 2026-119S
Orbit
SSO
Country
Flag of USUS
Related business
Manufacturer
SpaceX/Seattle
Mission
Operational spacecraft
Bus & Motor
STARLINK V2MO, Unknown motor
Mass
575 kg wet, ~530 kg dry
Launch date (UTC)
2026-05-30 (2 months ago)
Launch vehicle
FALCON 9
Launch site
Air Force Western Test Range (AFWTR)
Object type
Payload
Rocket body
Debris
Shape & HBR
Unknown shape, 17.7 m
Radar Cross Section
Large (>1 m²)

Expand to show TLE details & history
Last TLE update: 15 hours ago

TLE from 15 hours ago
0 STARLINK-37790
1 69312U 26119S   26202.08176060  .00013054  00000-0  40587-3 0  9990
2 69312  97.2851 227.7343 0000599  94.5280 265.6031 15.33453188  9254
Epoch: 2026-07-21T01:57Z
TLE epoch observation values (Epoch: 2026-07-21T01:57:44.115Z)
Latitude
-0.00006°
Longitude
-100.55607°
Altitude
468.662 km
Speed
7.632 km/s
True Right ascension
15h 10m 56s
True Declination
0° 00' 00"
Sunlit
Object was in daylight at epoch
Visualization orbit readout
Latitude
Unknown
Longitude
Unknown
Altitude
Unknown
Speed
Unknown
Apparent Right ascension
Unknown
Apparent Declination
Unknown
Sunlit
N/A
Visualization observer readout
Local Sidereal Time
06:16:24
Azimuth
Unknown
Elevation
Unknown
Doppler factor
Unknown
Orbital elements
Apogee altitude
462.871 km
Perigee altitude
462.052 km
Semi-major axis
6,840.599 km
Eccentricity
0.00006
Inclination
97.2851°
RAAN
227.7343°
Arg. of periapsis
94.528°
True anomaly
265.59626°
Mean anomaly
265.6031°
Eccentric anomaly
265.59968°
Mean motion
3.83621 °/min
Orbital period
93.84 mins
BSTAR
0.00040587
Loading maneuver chart data...
Computing Atmospheric mass density...
Loading historical data...
Loading historical data...
Loading historical data...
Loading historical data...
Loading historical data...
Loading historical data...
Loading historical data...

Documentation

Showing up to 5 results
|